User: anonymous   Login
Location: Unspecified
(0.0000°N, 0.0000°E)
Time: 03:36:49
(UTC+00:00)
Language:

SR - Orbit

View from above orbital plane
View from above orbital plane
View from above satellite
View from above satellite

Ground track
Ground track

The orbit data is extracted from the following two-line orbital elements,

1 00046U 60007B   15084.66357345  .00000966  00000-0  22012-3 0  9991
2 00046 066.6914 167.2878 0205603 115.8579 246.3889 14.48369265862267
Epoch (UTC): 25 March 2015 15:55:32
Eccentricity: 0.0205603
inclination: 66.6914°
perigee height: 585 km
apogee height: 877 km
right ascension of ascending node: 167.2878°
argument of perigee: 115.8579°
revolutions per day: 14.48369265
mean anomaly at epoch: 246.3889°
orbit number at epoch: 86226

The dashed part of the orbit path shows where the satellite is in the earth's shadow,  

DLR